Dundee, United Kingdom

1:22 PM BST on April 24, 2017 (GMT +0100)
Dundee

Weather History for EGPN - November, 2012

Change the Weather History Date:

Monday, November 26, 2012

  Actual Average Record
Temperature  
Mean Temperature 48 °F -  
Max Temperature 55 °F 43 °F 55 °F (2011)
Min Temperature 41 °F 37 °F 30 °F (2010)
Degree Days  
Heating Degree Days 17    
Moisture  
Dew Point 35 °F    
Average Humidity 75    
Maximum Humidity 81    
Minimum Humidity 66    
Precipitation  
Precipitation 0.00 in - - ()
Sea Level Pressure  
Sea Level Pressure 29.74 in    
Wind  
Wind Speed 5 mph ()    
Max Wind Speed 9 mph    
Max Gust Speed -    
Visibility 6.2 miles    
Events      
Averages and records for this station are not official NWS values.
T = Trace of Precipitation, MM = Missing Value Source: Averaged Metar Reports

Daily Weather History Graph

Daily Weather History Graph

Search for Another Location

Airport or City:

Trip Planner

Search our weather history database for the weather conditions in past years. The results will help you decide how hot, cold, wet, or windy it might be!

Date:

Astronomy

Nov. 26, 2012 Rise Set
Actual Time 8:13 AM GMT 3:45 PM GMT
Civil Twilight 7:28 AM GMT 4:30 PM GMT
Nautical Twilight 6:40 AM GMT 5:18 PM GMT
Astronomical Twilight 5:54 AM GMT 6:03 PM GMT
Moon 2:41 PM GMT (11/26) 5:54 AM GMT (11/26)
Length of Visible Light 9h 02m
Length of Day
7h 31m
Waxing Gibbous, 96% of the Moon is Illuminated
Nov 26
Waxing Gibbous
Nov 28
Full
Dec 6
Last Quarter
Dec 13
New
Dec 20
First Quarter

Hourly Weather History & Observations

Time (GMT) Temp. Windchill Dew Point Humidity Pressure Visibility Wind Dir Wind Speed Gust Speed Precip Events Conditions
6:20 AM 41.0 °F 37.1 °F 35.6 °F 81% 29.65 in 6.2 mi NNE 5.8 mph - N/A   Partly Cloudy
6:50 AM 42.8 °F 40.1 °F 35.6 °F 76% 29.68 in 6.2 mi North 4.6 mph - N/A   Partly Cloudy
7:20 AM 42.8 °F - 35.6 °F 76% 29.68 in 6.2 mi Variable 2.3 mph - N/A   Partly Cloudy
7:50 AM 42.8 °F 39.3 °F 35.6 °F 76% 29.68 in 6.2 mi NNE 5.8 mph - N/A   Partly Cloudy
8:20 AM 41.0 °F 38.0 °F 35.6 °F 81% 29.71 in 6.2 mi North 4.6 mph - N/A   Scattered Clouds
8:50 AM 42.8 °F 39.3 °F 35.6 °F 76% 29.71 in 6.2 mi North 5.8 mph - N/A   Scattered Clouds
9:20 AM 41.0 °F 37.1 °F 35.6 °F 81% 29.71 in 6.2 mi NNE 5.8 mph - N/A   Scattered Clouds
9:50 AM 42.8 °F 39.3 °F 35.6 °F 76% 29.71 in 6.2 mi North 5.8 mph - N/A   Scattered Clouds
10:20 AM 42.8 °F 40.1 °F 35.6 °F 76% 29.71 in 6.2 mi North 4.6 mph - N/A   Scattered Clouds
10:50 AM 42.8 °F 38.6 °F 35.6 °F 76% 29.74 in 6.2 mi North 6.9 mph - N/A   Scattered Clouds
11:20 AM 42.8 °F 38.0 °F 35.6 °F 76% 29.74 in 6.2 mi North 8.1 mph - N/A   Scattered Clouds
11:50 AM 42.8 °F 37.5 °F 35.6 °F 76% 29.71 in 6.2 mi NNE 9.2 mph - N/A   Scattered Clouds
12:20 PM 55.4 °F - 48.2 °F 77% 29.74 in 6.2 mi Variable 9.2 mph - N/A   Scattered Clouds
12:50 PM 42.8 °F 38.6 °F 35.6 °F 76% 29.74 in 6.2 mi North 6.9 mph - N/A   Scattered Clouds
1:20 PM 42.8 °F 38.6 °F 35.6 °F 76% 29.74 in 6.2 mi Variable 6.9 mph - N/A   Partly Cloudy
1:50 PM 42.8 °F 38.6 °F 35.6 °F 76% 29.74 in 6.2 mi NNE 6.9 mph - N/A   Partly Cloudy
2:20 PM 42.8 °F 39.3 °F 35.6 °F 76% 29.74 in 6.2 mi North 5.8 mph - N/A   Partly Cloudy
2:50 PM 42.8 °F 38.0 °F 33.8 °F 70% 29.74 in 6.2 mi Variable 8.1 mph - N/A   Partly Cloudy
3:20 PM 42.8 °F 40.1 °F 35.6 °F 76% 29.74 in 6.2 mi North 4.6 mph - N/A   Partly Cloudy
3:50 PM 42.8 °F 40.1 °F 33.8 °F 70% 29.74 in 6.2 mi North 4.6 mph - N/A   Partly Cloudy
4:20 PM 42.8 °F - 33.8 °F 70% 29.77 in 6.2 mi North 2.3 mph - N/A   Partly Cloudy
4:50 PM 42.8 °F 41.1 °F 33.8 °F 70% 29.77 in 6.2 mi North 3.5 mph - N/A   Partly Cloudy
5:20 PM 42.8 °F 40.1 °F 33.8 °F 70% 29.77 in 6.2 mi North 4.6 mph - N/A   Partly Cloudy
5:50 PM 42.8 °F 40.1 °F 32.0 °F 66% 29.77 in 6.2 mi NNE 4.6 mph - N/A   Partly Cloudy
6:20 PM 42.8 °F 39.3 °F 33.8 °F 70% 29.77 in 6.2 mi NNW 5.8 mph - N/A   Partly Cloudy
6:50 PM 42.8 °F 41.1 °F 33.8 °F 70% 29.77 in 6.2 mi NNW 3.5 mph - N/A   Partly Cloudy
7:20 PM 42.8 °F 41.1 °F 33.8 °F 70% 29.77 in 6.2 mi North 3.5 mph - N/A   Partly Cloudy
7:50 PM 42.8 °F 41.1 °F 35.6 °F 76% 29.80 in 6.2 mi North 3.5 mph - N/A   Partly Cloudy
8:20 PM 42.8 °F 41.1 °F 33.8 °F 70% 29.80 in 6.2 mi North 3.5 mph - N/A   Partly Cloudy
8:50 PM 42.8 °F 39.3 °F 35.6 °F 76% 29.80 in 6.2 mi NNW 5.8 mph - N/A   Partly Cloudy
9:20 PM 42.8 °F 40.1 °F 35.6 °F 76% 29.80 in 6.2 mi NNW 4.6 mph - N/A   Partly Cloudy
9:50 PM 42.8 °F 40.1 °F 35.6 °F 76% 29.80 in 6.2 mi North 4.6 mph - N/A   Partly Cloudy